Terug naar catalogus

FENGYUN 1C DEB

ActiefSSO
NORAD 29928·DEBRIS·🇨🇳 China

Gelanceerd May 10, 1999 vanaf Taiyuan Satellite Launch Center

Loading…

Volgende Passages (komende 24 uur)

TLE

VersSource: Space-Track

Epoch: Sep 14, 2026, 02:02 UTC

1 29928U 99025JA  26257.08483015  .00000456  00000-0  38504-3 0  9994
2 29928  99.5598 293.4558 0143106  90.1387 297.5351 13.88458786993120

Volg FENGYUN 1C DEB in realtime met AllMySat

Download on the App Store